Location: Vihti�l�
(61.3833°N, 23.0667°E)
Time: 02:55:28
(UTC+00:00)

NOAA 6 - Pass Details

Date: 29 November 2020
Orbit: 772 x 787 km, 98.7° (Epoch: 19 January)

Event Time Altitude Azimuth Distance (km) Brightness Sun altitude
Rises 05:59:45 0° 19° (NNE) 3,270 7.1 -7.4°
Reaches altitude 10° 06:02:09 10° 13° (NNE) 2,338 6.3 -7.1°
Maximum altitude 06:07:01 44° 302° (WNW) 1,066 4.3 -6.6°
Drops below altitude 10° 06:11:50 10° 232° (SW) 2,322 6.3 -6.2°
Sets 06:14:13 0° 226° (SW) 3,246 7.1 -5.9°
